Location: Göttingen
(51.5413°N, 9.9158°E)
Time: 17:46:23
(UTC+02:00)

EO-88 - Pass Details

Date: 03 July 2022
Orbit: 453 x 461 km, 97.3° (Epoch: 14 August)

Event Time Altitude Azimuth Distance (km) Brightness Sun altitude
Exits shadow 22:52:02 - 178° (S) 1,828 ? -8.4°
Reaches altitude 10° 22:52:31 10° 179° (S) 1,624 ? -8.4°
Maximum altitude 22:55:57 57° 259° (W) 560 ? -8.7°
Drops below altitude 10° 22:59:25 10° 339° (NNW) 1,635 ? -9.0°
Sets 23:01:30 0° 344° (NNW) 2,515 ? -9.2°
